Point Hope, AK

3:01 PM AKDT on July 28, 2016 (GMT -0800)
Cape Lisburne LRRS

Weather History for PALU - June, 2013

Change the Weather History Date:

Saturday, June 1, 2013

  Actual Average Record
Temperature  
Mean Temperature 40 °F -  
Max Temperature 49 °F 35 °F 49 °F (2013)
Min Temperature 30 °F 28 °F 24 °F (2002)
Degree Days  
Heating Degree Days 26    
Moisture  
Dew Point 32 °F    
Average Humidity 81    
Maximum Humidity 97    
Minimum Humidity 53    
Precipitation  
Precipitation 0.00 in - - ()
Sea Level Pressure  
Sea Level Pressure 30.20 in    
Wind  
Wind Speed 4 mph (ESE)    
Max Wind Speed 17 mph    
Max Gust Speed -    
Visibility 10 miles    
Events      
Averages and records for this station are not official NWS values.
T = Trace of Precipitation, MM = Missing Value Source: NWS Daily Summary

Daily Weather History Graph

Daily Weather History Graph

Search for Another Location

Airport or City:

Trip Planner

Search our weather history database for the weather conditions in past years. The results will help you decide how hot, cold, wet, or windy it might be!

Date:

Astronomy

Jun. 01, 2013 Rise Set
Actual Time 3:34 AM AKDT Sun does not set
Civil Twilight Sun does not set Sun does not set
Nautical Twilight Sun does not set Sun does not set
Astronomical Twilight Sun does not set Sun does not set
Moon 3:40 AM AKDT (6/1) 4:27 PM AKDT (6/1)
Length of Visible Light 24h 00m
Length of Day
24h 00m
Last Quarter, 39% of the Moon is Illuminated
Jun 1
Last Quarter
Jun 8
New
Jun 16
First Quarter
Jun 23
Full
Jun 29
Last Quarter

Hourly Weather History & Observations

Time (AKDT) Temp. Windchill Dew Point Humidity Pressure Visibility Wind Dir Wind Speed Gust Speed Precip Events Conditions
12:55 AM 34.7 °F - 31.1 °F 87% 30.35 in 10.0 mi West 1.2 mph - N/A   Clear
1:55 AM 33.6 °F - 30.9 °F 90% 30.35 in 10.0 mi East 1.2 mph - N/A   Clear
2:55 AM 33.1 °F 30.0 °F 30.6 °F 90% 30.34 in 10.0 mi East 3.5 mph - N/A   Clear
3:55 AM 30.4 °F - 29.7 °F 97% 30.34 in 10.0 mi Variable 1.2 mph - N/A   Clear
4:55 AM 30.4 °F - 29.7 °F 97% 30.32 in 10.0 mi East 1.2 mph - N/A   Clear
5:55 AM 32.9 °F - 30.6 °F 91% 30.31 in 10.0 mi East 2.3 mph - N/A   Clear
6:55 AM 31.6 °F 27.0 °F 29.8 °F 93% 30.29 in 10.0 mi ESE 4.6 mph - N/A   Clear
7:55 AM 34.5 °F 27.9 °F 31.5 °F 89% 30.27 in 10.0 mi East 8.1 mph - N/A   Clear
8:55 AM 36.1 °F - 31.3 °F 83% 30.26 in 10.0 mi Variable 2.3 mph - N/A   Clear
9:55 AM 38.8 °F 33.8 °F 33.3 °F 80% 30.25 in 10.0 mi East 6.9 mph - N/A   Clear
10:55 AM 37.2 °F 29.6 °F 32.4 °F 83% 30.23 in 10.0 mi East 11.5 mph - N/A   Clear
11:55 AM 38.8 °F 36.5 °F 33.6 °F 82% 30.21 in 10.0 mi Variable 3.5 mph - N/A   Clear
12:55 PM 39.9 °F 35.1 °F 33.8 °F 79% 30.20 in 10.0 mi East 6.9 mph - N/A   Clear
1:55 PM 36.9 °F 34.3 °F 32.9 °F 86% 30.20 in 10.0 mi ENE 3.5 mph - N/A   Clear
2:55 PM 38.7 °F 35.2 °F 33.4 °F 81% 30.18 in 10.0 mi East 4.6 mph - N/A   Clear
3:55 PM 38.5 °F 35.0 °F 33.8 °F 83% 30.16 in 10.0 mi East 4.6 mph - N/A   Clear
4:55 PM 38.8 °F - 34.0 °F 83% 30.13 in 10.0 mi Variable 2.3 mph - N/A   Clear
5:55 PM 41.0 °F - 35.2 °F 80% 30.11 in 10.0 mi Variable 1.2 mph - N/A   Clear
6:55 PM 39.7 °F - 35.1 °F 83% 30.09 in 10.0 mi Variable 1.2 mph - N/A   Clear
7:55 PM 44.6 °F 41.4 °F 34.3 °F 67% 30.06 in 10.0 mi East 5.8 mph - N/A   Clear
8:55 PM 46.0 °F 44.8 °F 33.6 °F 62% 30.04 in 10.0 mi East 3.5 mph - N/A   Clear
9:55 PM 43.7 °F - 33.3 °F 67% 30.03 in 10.0 mi Variable 1.2 mph - N/A   Clear
10:55 PM 49.5 °F - 32.9 °F 53% 30.01 in 10.0 mi SW 15.0 mph - N/A   Clear
11:55 PM 48.6 °F - 32.9 °F 55% 30.00 in 10.0 mi WSW 17.3 mph - N/A   Clear